sat.trackr.live / text

‹ back to catalog

YAOGAN-34 02

NORAD 52084 · 2022-027A

PAYLOAD ACTIVE UNKNOWN

§ Identity

Operator
Country
PRC
Launch date
2022-03-17
Launch site
JSC
Launch vehicle
Mass (kg)
RCS (m²)

External: N2YO · Heavens-Above · Gunter

§ Orbital elements

Epoch: 2026-05-25T04:57:24.432192Z

Period
107.03 min
Inclination
63.3977°
Eccentricity
0.0049959
Mean motion
13.45459092 rev/d
Perigee alt
1,051.7 km
Apogee alt
1,126.3 km
Semi-major
7,467.1 km
B*
2.2742e-5
RAAN
260.1463°
Arg perigee
353.2307°
Mean anomaly
6.8039°
Rev number
20,582

§ Raw data

YAOGAN-34 021 52084U 22027A   26145.20653278 -.00000077  00000+0  22742-4 0  99982 52084  63.3977 260.1463 0049959 353.2307   6.8039 13.45459092205822

JSON: /api/v1/satellites/52084 · /tle

For live sub-satellite position, see the globe view (requires WebGL).

§ Visibility from observer

Set your observer location to see the next 7 days of passes ≥ 10°. The values pass through the URL so the page stays shareable.

No JS? Fill the form by hand. The geolocation button needs JavaScript.